Zurück zum Katalog

USA 40 R/B

AktivHEO
NORAD 20344·ROCKET BODY·🇺🇸 United States

Gestartet Aug 8, 1989 von Cape Canaveral Space Force Station

Loading…

Nächste Überflüge (nächste 24 Stunden)

TLE

AktuellSource: Space-Track

Epoche: Sep 14, 2026, 14:50 UTC

1 20344U 89061D   26257.61834847  .00000280  00000-0  24594-3 0  9997
2 20344  57.0038 128.0016 3554552   1.4300 359.3993  7.89041045219789

Verfolge USA 40 R/B in Echtzeit mit AllMySat

Download on the App Store